When you browse on this site, cookies collect data to enhance your experience and personalize the content and advertising you see.
Visit our Privacy Policy to learn more. By continuing to use the site, you agree to this use of cookies and data.

Hourly Weather Batina

Today, 15 August, Saturday

Time Temperature Precipitation Wind Pressure Humidity
00:00 +27°C° 0 mm 1 mps 673 mmHg 37%
01:00 +27°C° 0 mm 1 mps 673 mmHg 37%
02:00 +27°C° 0 mm 1 mps 672 mmHg 36%
03:00 +26°C° 0 mm 2 mps 672 mmHg 35%
04:00 +27°C° 0 mm 2 mps 672 mmHg 33%
05:00 +28°C° 0 mm 2 mps 673 mmHg 32%
06:00 +30°C° 0 mm 2 mps 673 mmHg 29%
07:00 +32°C° 0 mm 4 mps 674 mmHg 25%
08:00 +34°C° 0 mm 5 mps 674 mmHg 21%
09:00 +36°C° 0 mm 7 mps 675 mmHg 17%
10:00 +36°C° 0 mm 7 mps 675 mmHg 17%
11:00 +36°C° 0 mm 7 mps 675 mmHg 16%
12:00 +38°C° 0 mm 7 mps 675 mmHg 15%
13:00 +38°C° 0 mm 7 mps 674 mmHg 15%
14:00 +38°C° 0 mm 7 mps 674 mmHg 14%
15:00 +39°C° 0 mm 6 mps 673 mmHg 14%
16:00 +37°C° 0 mm 5 mps 673 mmHg 15%
17:00 +36°C° 0 mm 5 mps 673 mmHg 16%
18:00 +35°C° 0 mm 4 mps 672 mmHg 16%
19:00 +33°C° 0 mm 3 mps 672 mmHg 18%
20:00 +31°C° 0 mm 3 mps 672 mmHg 20%
21:00 +29°C° 0 mm 2 mps 672 mmHg 22%
22:00 +29°C° 0 mm 2 mps 672 mmHg 22%
23:00 +29°C° 0 mm 3 mps 672 mmHg 22%

Tomorrow, 16 August, Sunday

Time Temperature Precipitation Wind Pressure Humidity
00:00 +29°C° 0 mm 3 mps 672 mmHg 22%
01:00 +29°C° 0 mm 3 mps 672 mmHg 22%
02:00 +28°C° 0 mm 3 mps 671 mmHg 22%
03:00 +28°C° 0 mm 4 mps 671 mmHg 22%
04:00 +28°C° 0 mm 3 mps 671 mmHg 22%
05:00 +28°C° 0 mm 3 mps 672 mmHg 22%
06:00 +28°C° 0 mm 2 mps 672 mmHg 23%
07:00 +32°C° 0 mm 4 mps 673 mmHg 20%
08:00 +34°C° 0 mm 6 mps 674 mmHg 17%
09:00 +38°C° 0 mm 9 mps 674 mmHg 14%
10:00 +38°C° 0 mm 9 mps 674 mmHg 14%
11:00 +39°C° 0 mm 9 mps 674 mmHg 13%
12:00 +40°C° 0 mm 9 mps 674 mmHg 13%
13:00 +40°C° 0 mm 9 mps 674 mmHg 12%
14:00 +40°C° 0 mm 8 mps 673 mmHg 12%
15:00 +40°C° 0 mm 7 mps 673 mmHg 12%
16:00 +38°C° 0 mm 7 mps 673 mmHg 17%
17:00 +35°C° 0 mm 6 mps 672 mmHg 22%
18:00 +33°C° 0 mm 5 mps 672 mmHg 27%
19:00 +32°C° 0 mm 4 mps 672 mmHg 29%
20:00 +30°C° 0 mm 3 mps 672 mmHg 32%
21:00 +29°C° 0 mm 2 mps 672 mmHg 34%
22:00 +29°C° 0 mm 3 mps 672 mmHg 34%
23:00 +29°C° 0 mm 3 mps 672 mmHg 35%

Day after tomorrow, 17 August, Monday

Time Temperature Precipitation Wind Pressure Humidity
00:00 +28°C° 0 mm 3 mps 672 mmHg 35%
01:00 +28°C° 0 mm 3 mps 672 mmHg 35%
02:00 +28°C° 0 mm 3 mps 671 mmHg 35%
03:00 +28°C° 0 mm 2 mps 671 mmHg 35%
04:00 +28°C° 0 mm 3 mps 672 mmHg 33%
05:00 +29°C° 0 mm 3 mps 672 mmHg 31%
06:00 +29°C° 0 mm 4 mps 672 mmHg 28%
07:00 +32°C° 0 mm 5 mps 673 mmHg 24%
08:00 +34°C° 0 mm 6 mps 674 mmHg 19%
09:00 +38°C° 0 mm 7 mps 675 mmHg 15%
10:00 +38°C° 0 mm 7 mps 674 mmHg 14%
11:00 +39°C° 0 mm 8 mps 674 mmHg 14%
12:00 +40°C° 0 mm 9 mps 674 mmHg 13%
13:00 +40°C° 0 mm 8 mps 674 mmHg 13%
14:00 +40°C° 0 mm 8 mps 673 mmHg 13%
15:00 +40°C° 0 mm 7 mps 673 mmHg 13%
16:00 +38°C° 0 mm 6 mps 673 mmHg 14%
17:00 +36°C° 0 mm 5 mps 672 mmHg 15%
18:00 +35°C° 0 mm 4 mps 672 mmHg 15%
19:00 +34°C° 0 mm 3 mps 672 mmHg 17%
20:00 +31°C° 0 mm 2 mps 672 mmHg 18%
21:00 +30°C° 0 mm 2 mps 672 mmHg 20%
22:00 +30°C° 0 mm 2 mps 672 mmHg 21%
23:00 +29°C° 0 mm 2 mps 672 mmHg 23%

18 August, Tuesday

Time Temperature Precipitation Wind Pressure Humidity
00:00 +29°C° 0 mm 2 mps 671 mmHg 24%
01:00 +28°C° 0 mm 2 mps 671 mmHg 24%
02:00 +28°C° 0 mm 2 mps 670 mmHg 23%
03:00 +27°C° 0 mm 2 mps 670 mmHg 23%
04:00 +28°C° 0 mm 2 mps 671 mmHg 22%
05:00 +29°C° 0 mm 2 mps 671 mmHg 21%
06:00 +29°C° 0 mm 2 mps 672 mmHg 20%
07:00 +33°C° 0 mm 4 mps 672 mmHg 17%
08:00 +35°C° 0 mm 5 mps 673 mmHg 15%
09:00 +38°C° 0 mm 6 mps 674 mmHg 12%
10:00 +39°C° 0 mm 7 mps 674 mmHg 12%
11:00 +40°C° 0 mm 8 mps 673 mmHg 11%
12:00 +41°C° 0 mm 8 mps 673 mmHg 11%
13:00 +41°C° 0 mm 8 mps 673 mmHg 11%
14:00 +40°C° 0 mm 8 mps 673 mmHg 11%
15:00 +40°C° 0 mm 8 mps 672 mmHg 11%
16:00 +39°C° 0 mm 6 mps 672 mmHg 14%
17:00 +36°C° 0 mm 5 mps 671 mmHg 17%
18:00 +34°C° 0 mm 4 mps 671 mmHg 20%
19:00 +33°C° 0 mm 3 mps 671 mmHg 26%
20:00 +30°C° 0 mm 2 mps 671 mmHg 31%
21:00 +28°C° 0 mm 2 mps 671 mmHg 37%
22:00 +28°C° 0 mm 2 mps 671 mmHg 36%
23:00 +27°C° 0 mm 2 mps 671 mmHg 34%

19 August, Wednesday

Time Temperature Precipitation Wind Pressure Humidity
00:00 +27°C° 0 mm 2 mps 670 mmHg 32%
01:00 +26°C° 0 mm 2 mps 670 mmHg 32%
02:00 +26°C° 0 mm 1 mps 670 mmHg 32%
03:00 +26°C° 0 mm 1 mps 669 mmHg 32%
04:00 +27°C° 0 mm 1 mps 670 mmHg 30%
05:00 +28°C° 0 mm 1 mps 670 mmHg 28%
06:00 +28°C° 0 mm 2 mps 671 mmHg 25%
07:00 +31°C° 0 mm 3 mps 671 mmHg 22%
08:00 +34°C° 0 mm 5 mps 672 mmHg 18%
09:00 +38°C° 0 mm 7 mps 673 mmHg 14%
10:00 +39°C° 0 mm 8 mps 673 mmHg 13%
11:00 +40°C° 0 mm 9 mps 673 mmHg 12%
12:00 +40°C° 0 mm 10 mps 673 mmHg 11%
13:00 +42°C° 0 mm 9 mps 672 mmHg 11%
14:00 +42°C° 0 mm 9 mps 671 mmHg 11%
15:00 +41°C° 0 mm 8 mps 671 mmHg 10%
16:00 +40°C° 0 mm 7 mps 671 mmHg 11%
17:00 +39°C° 0 mm 6 mps 670 mmHg 12%
18:00 +36°C° 0 mm 4 mps 670 mmHg 13%
19:00 +35°C° 0 mm 4 mps 670 mmHg 17%
20:00 +33°C° 0 mm 3 mps 670 mmHg 21%
21:00 +30°C° 0 mm 3 mps 670 mmHg 25%
22:00 +29°C° 0 mm 2 mps 670 mmHg 27%
23:00 +28°C° 0 mm 2 mps 670 mmHg 28%

20 August, Thursday

Time Temperature Precipitation Wind Pressure Humidity
00:00 +28°C° 0 mm 2 mps 669 mmHg 30%
01:00 +27°C° 0 mm 1 mps 669 mmHg 31%
02:00 +27°C° 0 mm 1 mps 669 mmHg 31%
03:00 +26°C° 0 mm 1 mps 669 mmHg 32%
04:00 +27°C° 0 mm 1 mps 669 mmHg 31%
05:00 +28°C° 0 mm 1 mps 669 mmHg 30%
06:00 +29°C° 0 mm 1 mps 670 mmHg 29%
07:00 +31°C° 0 mm 2 mps 671 mmHg 24%
08:00 +35°C° 0 mm 3 mps 672 mmHg 19%
09:00 +38°C° 0 mm 4 mps 673 mmHg 15%
10:00 +40°C° 0 mm 5 mps 673 mmHg 13%
11:00 +42°C° 0 mm 5 mps 673 mmHg 12%
12:00 +44°C° 0 mm 6 mps 673 mmHg 10%
13:00 +44°C° 0 mm 6 mps 673 mmHg 10%
14:00 +44°C° 0 mm 6 mps 672 mmHg 10%
15:00 +43°C° 0 mm 5 mps 672 mmHg 10%
16:00 +41°C° 0 mm 5 mps 672 mmHg 12%
17:00 +40°C° 0 mm 4 mps 672 mmHg 15%
18:00 +37°C° 0 mm 4 mps 671 mmHg 18%
19:00 +35°C° 0 mm 3 mps 671 mmHg 21%
20:00 +33°C° 0 mm 3 mps 672 mmHg 25%
21:00 +31°C° 0 mm 2 mps 672 mmHg 28%
22:00 +30°C° 0 mm 2 mps 672 mmHg 29%
23:00 +29°C° 0 mm 1 mps 671 mmHg 30%
Show more